Location: ??????
(30.5519°N, 47.7720°E)
Time: 17:15:33
(UTC+00:00)

NOSS 3-1 (A) - Pass Details

Date: 24 January 2021
Orbit: 735 x 1477 km, 63.4° (Epoch: 02 March)

Event Time Altitude Azimuth Distance (km) Brightness Sun altitude
Rises 17:05:31 0° 329° (NNW) 4,145 7.1 -35.9°
Reaches altitude 10° 17:08:08 10° 328° (NNW) 3,268 6.5 -36.5°
Enters shadow 17:15:15 70° 300° (WNW) 1,466 4.3 -38.0°
